Regional Weather Roundup
Issued by NWS

Home | Current Version | Previous Version | Graphics & Text | Print | Product List | Glossary Off
Versions: 1 2 3 4 5 6 7 8 9 10 11 12 13 14 15 16 17 18 19 20 21 22 23 24 25 26 27 28 29 30 31 32 33 34 35 36 37 38 39 40 41 42 43 44 45 46 47 48 49 50

000
ASUS43 KMKX 170559
RWRWI

WISCONSIN REGIONAL WEATHER ROUNDUP
NATIONAL WEATHER SERVICE MILWAUKEE/SULLIVAN WI
1200 AM CST WED JAN 17 2018

NOTE: "FAIR" INDICATES FEW OR NO CLOUDS BELOW 12,000 FEET WITH NO
SIGNIFICANT WEATHER AND/OR OBSTRUCTIONS TO VISIBILITY.

WIZ001-002-006>008-014>016-023>028-170700-
NORTHWEST WISCONSIN

CITY           SKY/WX    TMP DP  RH WIND       PRES   REMARKS
SUPERIOR ARPT  FAIR       6  -2  70 SW10      30.40F WCI  -9
6HR MIN TEMP:   5; 6HR MAX TEMP:   9;

ASHLAND        FAIR       6  -2  69 SW15      30.38F WCI -12
6HR MIN TEMP:   6; 6HR MAX TEMP:  11;

HAYWARD        FAIR       0  -6  76 S7        30.41F WCI -13
6HR MIN TEMP:   0; 6HR MAX TEMP:   9;

SIREN          FAIR       0  -5  79 SW6       30.47S WCI -11
CUMBERLAND     FAIR      -4  -8  84 SW5       30.44F WCI -15
RICE LAKE      FAIR       0  -5  81 CALM      30.49F
CHETEK         FAIR      -2  -6  85 SW3       30.47F
LADYSMITH      FAIR       0  -4  83 W3        30.45F
6HR MIN TEMP:   0; 6HR MAX TEMP:  11;

EAU CLAIRE     NOT AVBL
MENOMONIE      FAIR      -3  -7  80 S6        30.51F WCI -15
6HR MIN TEMP:  -3; 6HR MAX TEMP:   5;

NEW RICHMOND   FAIR      -3  -8  82 SW6       30.49F WCI -16
OSCEOLA        FAIR      -2  -7  81 SW5       30.53F WCI -12
$$

WIZ003>005-009-010-017-018-170700-
NORTH CENTRAL WISCONSIN

CITY           SKY/WX    TMP DP  RH WIND       PRES   REMARKS
MANITOWISH WTR FAIR       3   1  91 SW6       30.32F WCI  -8
ARBOR VITAE    FAIR       6   2  86 SW5       30.33F WCI  -3
WOODRUFF       FAIR       6   2  86 SW5       30.33F WCI  -3
RHINELANDER    FAIR       4   1  88 W9        30.34F WCI -10
6HR MIN TEMP:   2; 6HR MAX TEMP:   9;

EAGLE RIVER    FAIR       4   0  83 W9        30.30F WCI -10
6HR MIN TEMP:   1; 6HR MAX TEMP:  11;

LAND O LAKES   FAIR       7   4  87 W6        30.31F WCI  -3
PHILLIPS       FAIR       0  -3  86 W3        30.38F
6HR MIN TEMP:   0; 6HR MAX TEMP:  13;

TOMAHAWK       FAIR       2  -2  84 CALM      30.38F
MEDFORD        FAIR      -3  -6  85 SW5       30.41S WCI -13
MERRILL        FAIR       1  -2  84 W5        30.41S WCI  -8
6HR MIN TEMP:   1; 6HR MAX TEMP:  15;

$$

WIZ029-030-035-036-043>047-170700-
CENTRAL WISCONSIN

CITY           SKY/WX    TMP DP  RH WIND       PRES   REMARKS
WAUSAU         FAIR       1  -3  83 W6        30.41F WCI -10
6HR MIN TEMP:   1; 6HR MAX TEMP:  16;

MOSINEE        FAIR       1   0  92 W8        30.44  WCI -12
MARSHFIELD     FAIR      -1  -5  82 W8        30.43F WCI -15
6HR MIN TEMP:  -1; 6HR MAX TEMP:  10;

STEVENS POINT  FAIR       2  -2  83 W6        30.46S WCI  -9
WAUPACA        FAIR       9   4  80 W8        30.48S WCI  -3
WAUTOMA        FAIR       3   0  87 W9        30.49F WCI -12
6HR MIN TEMP:   3; 6HR MAX TEMP:  17;

WISC RAPIDS    FAIR       2  -3  80 W6        30.48F WCI  -9
6HR MIN TEMP:   2; 6HR MAX TEMP:  15;

CAMP DOUGLAS   FAIR       0  -4  83 W6        30.50F WCI -11
6HR MIN TEMP:  -1; 6HR MAX TEMP:   9;

$$

WIZ011>013-019>022-031-037>040-048>050-170700-
NORTHEAST WISCONSIN

CITY           SKY/WX    TMP DP  RH WIND       PRES   REMARKS
ANTIGO         FAIR       4   2  91 W7        30.37F WCI  -8
SHAWANO        FAIR      11   7  81 SW6       30.43F WCI   2
6HR MIN TEMP:  11; 6HR MAX TEMP:  22;

OCONTO         FAIR       4   1  88 W5        30.43F WCI  -5
STURGEON BAY   CLOUDY     9   7  92 SW7       30.42F WCI  -2
6HR MIN TEMP:   3; 6HR MAX TEMP:  15;

GREEN BAY      FAIR      11   6  81 W10       30.44F WCI  -3
6HR MIN TEMP:   1; 6HR MAX TEMP:  15;

MANITOWOC      FAIR      12   9  87 W8        30.46F WCI   0
6HR MIN TEMP:   7; 6HR MAX TEMP:  14; 6HR PCP: TRACE;

APPLETON       FAIR       9   3  78 W13       30.43F WCI  -7
CLINTONVILLE   FAIR      10   5  79 W7        30.45F WCI   0
OSHKOSH        FAIR       8   4  83 W7        30.46F WCI  -3
6HR MIN TEMP:   8; 6HR MAX TEMP:  19;

$$

WIZ032>034-041-042-053>061-170700-
SOUTHWEST WISCONSIN

CITY           SKY/WX    TMP DP  RH WIND       PRES   REMARKS
LA CROSSE      FAIR       0  -6  76 SW5       30.57F WCI -10
6HR MIN TEMP:  -2; 6HR MAX TEMP:   9;

SPARTA         FAIR       1  -2  88 CALM      30.54F
VIROQUA        FAIR      -3  -5  92 W8        30.49F WCI -18
6HR MIN TEMP:  -4; 6HR MAX TEMP:   8;

BOSCOBEL       FAIR       1  -4  79 SW6       30.59S WCI -10
6HR MIN TEMP:   1; 6HR MAX TEMP:  12;

PRAIRIE DU CHI FAIR      -1  -6  80 W5        30.60S WCI -12
PLATTEVILLE    FAIR       1  -1  90 W8        30.54F WCI -13
$$

WIZ056-057-062-063-064-067-068-170700-
SOUTH CENTRAL WISCONSIN

CITY           SKY/WX    TMP DP  RH WIND       PRES   REMARKS
REEDSBURG      FAIR       4   1  88 W3        30.52S
BARABOO/DELLS  LGT SNOW   4   1  87 W3        30.51S
LONE ROCK      NOT AVBL
MINERAL POINT  FAIR       1   0  92 W7        30.50F WCI -11
MADISON        FAIR       5   2  87 CALM      30.51S
6HR MIN TEMP:   5; 6HR MAX TEMP:  16;

MIDDLETON      FAIR       8   5  87 W8        30.52S WCI  -5
WATERTOWN      FAIR       0  -1  95 CALM      30.50S
MONROE         FAIR       5   3  92 W14       30.50F WCI -12
JANESVILLE     FAIR       9   5  85 CALM      30.52F
$$

WIZ051-052-058>065-066-070>072-170700-
SOUTHEAST WISCONSIN

CITY           SKY/WX    TMP DP  RH WIND       PRES   REMARKS
MILWAUKEE      FAIR      14   9  80 W7        30.50S WCI   4
6HR MIN TEMP:  14; 6HR MAX TEMP:  20;

WAUKESHA       FAIR      10   5  79 W12       30.50S WCI  -4
MILWAUKEE/TIMM FAIR      12   7  79 W8        30.51S WCI   1
RACINE         FAIR      10   7  87 W6        30.51F WCI   0
6HR MIN TEMP:  10; 6HR MAX TEMP:  18;

BURLINGTON     FAIR       8   4  86 W5        30.51S WCI  -1
KENOSHA        FAIR       8   4  83 W7        30.50F WCI  -3
6HR MIN TEMP:   6; 6HR MAX TEMP:  17;

FOND DU LAC    FAIR       8   3  80 CALM      30.47F
6HR MIN TEMP:   8; 6HR MAX TEMP:  20;

SHEBOYGAN      FAIR      11   8  88 W9        30.46F WCI  -2
6HR MIN TEMP:  -5; 6HR MAX TEMP:  14;

WEST BEND      FAIR      12  10  92 W5        30.48S WCI   4
JUNEAU         FAIR       4   1  88 SW5       30.50R WCI  -6
$$

LSZ147-162-170700-
LAKE SUPERIOR

STATION/POSITION TIME  TEMP    WIND        PRES    WAVE
                       AIR SEA DIR/SP/G            HT/PER
                 (UTC) (F)     (DEG/KT/KT) (MB)    (FT/S)
DEVILS ISLAND    0500   13     220/ 19/ 26 1029.3F
SAXON HARBOR     0540   11     210/  9/ 12 1028.4F
$$

LMZ867-665-643>646-170700-
LAKE MICHIGAN

STATION/POSITION TIME  TEMP    WIND        PRES    WAVE
                       AIR SEA DIR/SP/G            HT/PER
                 (UTC) (F)     (DEG/KT/KT) (MB)    (FT/S)
NORTHPORT PIER   0540    9     240/  4/ 12 1029.1F
KEWAUNEE LAKESHO 0530    6     290/  4/  5 1030.1F
SHEBOYGAN LAKESH 0500   16     270/  9/ 10 1033.2F
PORT WASHINGTON  0530   14     280/  5/  8 1033.5S
MILWAUKEE LAKESH 0530   15     290/ 10/ 12   N/A
KENOSHA   LAKESH 0500   13     270/ 10/ 11 1033.2
$$

TC  - TEMPERATURE IN CELSIUS
VSB - VISIBILITY IN STATUTE MILES
WCI - WIND CHILL INDEX
HX  - HEAT INDEX





USA.gov is the U.S. government's official web portal to all federal, state and local government web resources and services.